EW9652 Weather Reports


Display with metric or nautical units.
time (UTC)temp
F
wind
direction
speed
MPH
gust
MPH
rain 1hr
in
rain 24hr
in
rain mn
in
humidity
%
barometer
mb
20260508045722 59 203 6.0 9.0 0.00 0.00 0.00 41 1015.3
20260508045222 59 191 6.0 9.0 0.00 0.00 0.00 42 1015.3
20260508044723 59 191 7.0 9.0 0.00 0.00 0.00 41 1015.3
20260508044222 59 200 7.0 9.0 0.00 0.00 0.00 41 1015.3
20260508043953 60 204 6.0 9.0 0.00 0.00 0.00 40 1015.4
20260508043221 60 191 6.0 10.0 0.00 0.00 0.00 40 1015.5
20260508042722 60 203 7.0 10.0 0.00 0.00 0.00 39 1015.5
20260508042451 61 225 7.0 10.0 0.00 0.00 0.00 39 1015.5
20260508041725 61 207 6.0 10.0 0.00 0.00 0.00 38 1015.5
20260508041720 61 192 5.0 8.0 0.00 0.00 0.00 38 1015.6
20260508040948 61 0 5.0 7.0 0.00 0.00 0.00 38 1015.6
20260508040218 62 191 6.0 9.0 0.00 0.00 0.00 37 1015.4
20260508035715 62 197 6.0 9.0 0.00 0.00 0.00 37 1015.4
20260508035216 62 193 6.0 9.0 0.00 0.00 0.00 36 1015.4
20260508034716 62 203 7.0 9.0 0.00 0.00 0.00 36 1015.3
20260508034447 62 198 7.0 9.0 0.00 0.00 0.00 36 1015.3
20260508033715 63 167 7.0 9.0 0.00 0.00 0.00 35 1015.4
20260508033213 63 195 6.0 9.0 0.00 0.00 0.00 34 1015.3
20260508032716 63 186 5.0 7.0 0.00 0.00 0.00 34 1015.4
20260508032209 64 193 5.0 8.0 0.00 0.00 0.00 33 1015.4
20260508031710 64 205 6.0 9.0 0.00 0.00 0.00 33 1015.4
20260508031208 64 183 6.0 9.0 0.00 0.00 0.00 33 1015.3
20260508030707 64 182 5.0 8.0 0.00 0.00 0.00 32 1015.2
20260508030206 65 197 6.0 8.0 0.00 0.00 0.00 32 1015.2
20260508025707 65 179 5.0 8.0 0.00 0.00 0.00 32 1015.0
20260508025205 65 198 4.0 6.0 0.00 0.00 0.00 32 1014.9
20260508024707 65 180 4.0 6.0 0.00 0.00 0.00 31 1014.8
20260508024437 66 179 4.0 6.0 0.00 0.00 0.00 30 1014.8
20260508023707 67 193 4.0 6.0 0.00 0.00 0.00 30 1014.6
20260508023204 67 205 5.0 6.0 0.00 0.00 0.00 30 1014.7
20260508022702 67 191 5.0 6.0 0.00 0.00 0.00 29 1014.7
20260508022202 67 187 4.0 7.0 0.00 0.00 0.00 29 1014.7
20260508021706 68 196 5.0 7.0 0.00 0.00 0.00 28 1014.7
20260508021202 68 179 5.0 7.0 0.00 0.00 0.00 28 1014.7
20260508020931 69 193 5.0 6.0 0.00 0.00 0.00 27 1014.7
20260508020159 70 199 5.0 8.0 0.00 0.00 0.00 27 1014.7
20260508015657 70 193 4.0 8.0 0.00 0.00 0.00 27 1014.6
20260508015158 71 203 4.0 7.0 0.00 0.00 0.00 26 1014.6
20260508014656 71 195 5.0 7.0 0.00 0.00 0.00 25 1014.4
20260508014155 72 195 5.0 8.0 0.00 0.00 0.00 25 1014.4
20260508013656 73 203 5.0 9.0 0.00 0.00 0.00 24 1014.4
20260508013154 74 209 6.0 10.0 0.00 0.00 0.00 23 1014.3
20260508012653 74 179 8.0 13.0 0.00 0.00 0.00 23 1014.3
20260508012152 74 203 7.0 13.0 0.00 0.00 0.00 24 1014.2
20260508011653 75 266 7.0 12.0 0.00 0.00 0.00 24 1014.2
20260508011152 75 311 7.0 12.0 0.00 0.00 0.00 23 1014.2
20260508010651 75 206 8.0 12.0 0.00 0.00 0.00 23 1014.2
20260508010152 75 203 9.0 15.0 0.00 0.00 0.00 24 1014.2
20260508005920 75 197 8.0 15.0 0.00 0.00 0.00 22 1014.2
20260508005420 76 224 7.0 14.0 0.00 0.00 0.00 22 1014.3
20260508004651 76 212 7.0 14.0 0.00 0.00 0.00 22 1014.3
20260508004147 76 233 6.0 13.0 0.00 0.00 0.00 23 1014.3
20260508003647 76 262 8.0 13.0 0.00 0.00 0.00 23 1014.4
20260508003148 76 244 10.0 17.0 0.00 0.00 0.00 23 1014.4
20260508002648 76 221 9.0 17.0 0.00 0.00 0.00 22 1014.4
20260508002146 76 212 9.0 16.0 0.00 0.00 0.00 22 1014.4
20260508001646 76 265 8.0 16.0 0.00 0.00 0.00 22 1014.5
20260508001145 76 201 7.0 16.0 0.00 0.00 0.00 23 1014.4
20260508000915 76 245 9.0 16.0 0.00 0.00 0.00 23 1014.5
20260508000143 76 234 7.0 15.0 0.00 0.00 0.00 21 1014.5
20260507235643 76 212 8.0 15.0 0.00 0.00 0.00 22 1014.5
20260507235414 76 233 8.0 15.0 0.00 0.00 0.00 20 1014.5
20260507234639 76 248 7.0 14.0 0.00 0.00 0.00 21 1014.6
20260507234140 76 210 7.0 14.0 0.00 0.00 0.00 22 1014.5
20260507233637 76 177 9.0 17.0 0.00 0.00 0.00 24 1014.6
20260507233137 76 204 8.0 20.0 0.00 0.00 0.00 22 1014.7
20260507232638 76 225 8.0 20.0 0.00 0.00 0.00 22 1014.8
20260507232135 76 204 9.0 17.0 0.00 0.00 0.00 22 1014.8
20260507231636 76 234 9.0 17.0 0.00 0.00 0.00 22 1014.9
20260507231135 75 221 9.0 16.0 0.00 0.00 0.00 24 1014.9
20260507230635 76 195 8.0 16.0 0.00 0.00 0.00 23 1015.0
20260507230136 76 221 7.0 16.0 0.00 0.00 0.00 22 1015.0
20260507225637 76 245 6.0 16.0 0.00 0.00 0.00 22 1015.1
20260507225131 75 288 6.0 14.0 0.00 0.00 0.00 22 1015.1
20260507224632 76 203 8.0 18.0 0.00 0.00 0.00 23 1015.1
20260507224131 76 243 8.0 18.0 0.00 0.00 0.00 22 1015.2
20260507223632 76 203 10.0 20.0 0.00 0.00 0.00 22 1015.3
20260507223129 75 264 9.0 20.0 0.00 0.00 0.00 21 1015.4
20260507222627 76 221 7.0 15.0 0.00 0.00 0.00 22 1015.5
20260507222128 75 272 9.0 20.0 0.00 0.00 0.00 22 1015.6
20260507221628 75 241 9.0 20.0 0.00 0.00 0.00 22 1015.5
20260507221127 75 281 6.0 14.0 0.00 0.00 0.00 22 1015.6
20260507220627 75 245 7.0 17.0 0.00 0.00 0.00 23 1015.6
20260507220124 74 250 9.0 19.0 0.00 0.00 0.00 24 1015.8
20260507215625 74 230 8.0 19.0 0.00 0.00 0.00 23 1015.8
20260507215125 74 283 8.0 16.0 0.00 0.00 0.00 24 1015.9
20260507214627 74 253 11.0 17.0 0.00 0.00 0.00 24 1016.1
20260507214121 74 274 10.0 17.0 0.00 0.00 0.00 24 1016.2
20260507213621 74 244 10.0 18.0 0.00 0.00 0.00 24 1016.2
20260507213352 74 239 10.0 23.0 0.00 0.00 0.00 25 1016.3
20260507212619 74 271 8.0 23.0 0.00 0.00 0.00 24 1016.4
20260507212119 73 250 8.0 19.0 0.00 0.00 0.00 26 1016.5
20260507211619 73 224 9.0 18.0 0.00 0.00 0.00 26 1016.7
20260507211117 72 203 11.0 20.0 0.00 0.00 0.00 27 1016.8
20260507210848 72 265 11.0 20.0 0.00 0.00 0.00 26 1017.0
20260507210346 72 192 9.0 17.0 0.00 0.00 0.00 27 1017.0
20260507205615 72 223 9.0 18.0 0.00 0.00 0.00 28 1017.1
20260507205115 72 262 10.0 22.0 0.00 0.00 0.00 27 1017.1
20260507204617 72 245 9.0 22.0 0.00 0.00 0.00 27 1017.3
20260507204107 72 250 9.0 19.0 0.00 0.00 0.00 27 1017.4
20260507203607 71 257 8.0 19.0 0.00 0.00 0.00 28 1017.6
20260507203103 71 247 8.0 17.0 0.00 0.00 0.00 28 1017.6
20260507202603 70 218 9.0 17.0 0.00 0.00 0.00 31 1017.8
20260507202103 70 185 9.0 16.0 0.00 0.00 0.00 30 1017.9
20260507201602 70 259 8.0 16.0 0.00 0.00 0.00 30 1018.0
20260507201059 70 222 8.0 17.0 0.00 0.00 0.00 30 1018.1
20260507200829 69 186 8.0 17.0 0.00 0.00 0.00 31 1018.2
20260507200059 70 260 8.0 17.0 0.00 0.00 0.00 30 1018.3
20260507195557 69 226 6.0 17.0 0.00 0.00 0.00 27 1018.6
20260507195057 69 207 4.0 13.0 0.00 0.00 0.00 33 1018.6
20260507194555 69 319 5.0 17.0 0.00 0.00 0.00 33 1018.7
20260507194056 69 296 6.0 17.0 0.00 0.00 0.00 32 1018.9
20260507193555 69 261 6.0 16.0 0.00 0.00 0.00 33 1019.0
20260507193055 68 177 7.0 16.0 0.00 0.00 0.00 32 1019.1
20260507192554 68 215 7.0 14.0 0.00 0.00 0.00 34 1019.2
20260507192053 68 255 7.0 14.0 0.00 0.00 0.00 34 1019.3
20260507191553 67 226 8.0 16.0 0.00 0.00 0.00 36 1019.4
20260507191050 67 271 7.0 16.0 0.00 0.00 0.00 36 1019.6
20260507190552 67 254 6.0 15.0 0.00 0.00 0.00 38 1019.7
20260507190051 66 281 6.0 15.0 0.00 0.00 0.00 38 1019.7
20260507185549 66 251 6.0 13.0 0.00 0.00 0.00 39 1019.9
20260507185049 66 260 5.0 13.0 0.00 0.00 0.00 38 1020.0
20260507184814 66 237 5.0 17.0 0.00 0.00 0.00 40 1020.0
20260507184042 65 245 7.0 17.0 0.00 0.00 0.00 40 1020.2
20260507183808 65 195 6.0 17.0 0.00 0.00 0.00 41 1020.3
20260507183037 65 252 5.0 17.0 0.00 0.00 0.00 41 1020.5
20260507182537 64 345 6.0 14.0 0.00 0.00 0.00 42 1020.6
20260507182035 63 252 7.0 14.0 0.00 0.00 0.00 43 1020.8
20260507181536 63 261 8.0 16.0 0.00 0.00 0.00 43 1021.0
20260507181035 63 243 7.0 16.0 0.00 0.00 0.00 43 1021.0
20260507180535 63 277 8.0 14.0 0.00 0.00 0.00 43 1021.1
20260507180036 63 237 8.0 14.0 0.00 0.00 0.00 45 1021.2
20260507175536 62 262 8.0 15.0 0.00 0.00 0.00 45 1021.5
20260507175532 62 238 8.0 15.0 0.00 0.00 0.00 46 1021.3
20260507174532 62 192 7.0 14.0 0.00 0.00 0.00 47 1021.5
20260507174030 61 284 7.0 16.0 0.00 0.00 0.00 48 1021.6
20260507173532 61 277 7.0 16.0 0.00 0.00 0.00 48 1021.6
20260507173031 60 263 8.0 17.0 0.00 0.00 0.00 48 1021.8
20260507172801 60 237 7.0 17.0 0.00 0.00 0.00 48 1021.8
20260507172032 59 232 8.0 15.0 0.00 0.00 0.00 49 1021.9
20260507171529 59 220 7.0 15.0 0.00 0.00 0.00 50 1022.1
20260507171301 59 226 7.0 14.0 0.00 0.00 0.00 51 1022.1
20260507170528 59 252 8.0 17.0 0.00 0.00 0.00 51 1022.2
20260507170031 58 224 8.0 17.0 0.00 0.00 0.00 52 1022.3
20260507165525 57 264 8.0 16.0 0.00 0.00 0.00 54 1022.5
20260507165521 58 247 9.0 17.0 0.00 0.00 0.00 53 1022.5
20260507164517 57 272 9.0 15.0 0.00 0.00 0.00 54 1022.6
20260507164016 56 238 10.0 18.0 0.00 0.00 0.00 56 1022.7
20260507163745 56 155 8.0 18.0 0.00 0.00 0.00 55 1022.7
20260507163012 56 266 7.0 13.0 0.00 0.00 0.00 56 1022.8
20260507162512 56 243 7.0 14.0 0.00 0.00 0.00 56 1023.0
20260507162008 56 243 7.0 15.0 0.00 0.00 0.00 57 1023.1
20260507161506 55 198 7.0 15.0 0.00 0.00 0.00 58 1023.1
20260507161236 55 221 8.0 14.0 0.00 0.00 0.00 58 1023.1
20260507160734 54 221 9.0 17.0 0.00 0.00 0.00 59 1023.2
20260507160000 53 1 9.0 17.0 0.00 0.00 0.00 61 1023.2
20260507155458 53 233 8.0 15.0 0.00 0.00 0.00 60 1023.3
20260507154954 53 221 7.0 14.0 0.00 0.00 0.00 61 1023.3
20260507154456 53 245 7.0 15.0 0.00 0.00 0.00 62 1023.5
20260507153954 52 233 6.0 15.0 0.00 0.00 0.00 64 1023.5
20260507153723 52 200 6.0 13.0 0.00 0.00 0.00 66 1023.6
20260507152953 51 225 6.0 12.0 0.00 0.00 0.00 68 1023.5
20260507152452 51 215 5.0 11.0 0.00 0.00 0.00 70 1023.6
20260507151953 50 274 5.0 10.0 0.00 0.00 0.00 71 1023.8
20260507151453 50 248 6.0 10.0 0.00 0.00 0.00 71 1023.7
20260507150952 49 229 4.0 10.0 0.00 0.00 0.00 73 1023.8
20260507150450 49 252 4.0 8.0 0.00 0.00 0.00 77 1023.8
20260507145948 48 254 4.0 9.0 0.00 0.00 0.00 78 1023.7
20260507145719 48 235 4.0 9.0 0.00 0.00 0.00 80 1023.8
20260507145219 48 244 4.0 8.0 0.00 0.00 0.00 81 1023.8
20260507144450 47 249 4.0 8.0 0.00 0.00 0.00 83 1023.8
20260507143946 47 281 4.0 8.0 0.00 0.00 0.00 84 1023.9
20260507143446 46 276 5.0 8.0 0.00 0.00 0.00 85 1023.9
20260507143218 45 302 5.0 9.0 0.00 0.00 0.00 86 1024.0
20260507142446 45 322 5.0 10.0 0.00 0.00 0.00 87 1024.1
20260507141946 44 331 5.0 10.0 0.00 0.00 0.00 87 1024.2
20260507141447 44 272 5.0 9.0 0.00 0.00 0.00 88 1024.3
20260507140947 44 327 5.0 9.0 0.00 0.00 0.00 88 1024.2
20260507140447 44 334 4.0 9.0 0.00 0.00 0.00 89 1024.3
20260507135943 43 307 4.0 8.0 0.00 0.00 0.00 90 1024.3
20260507135712 43 301 4.0 8.0 0.00 0.00 0.00 89 1024.3
20260507134938 43 281 4.0 8.0 0.00 0.00 0.00 90 1024.3
20260507134438 42 285 5.0 8.0 0.00 0.00 0.00 90 1024.4
20260507133939 42 265 4.0 8.0 0.00 0.00 0.00 90 1024.4
20260507133708 42 307 6.0 9.0 0.00 0.00 0.00 90 1024.4
20260507132936 41 342 7.0 9.0 0.00 0.00 0.00 90 1024.4
20260507132437 41 335 6.0 9.0 0.00 0.00 0.00 89 1024.4
20260507132208 41 319 5.0 10.0 0.00 0.00 0.00 89 1024.4
20260507131437 41 293 5.0 10.0 0.00 0.00 0.00 89 1024.4
20260507130936 41 279 5.0 7.0 0.00 0.00 0.00 89 1024.4
20260507130432 41 324 4.0 8.0 0.00 0.00 0.00 89 1024.4
20260507125932 41 328 4.0 8.0 0.00 0.00 0.00 89 1024.3
20260507125433 40 337 4.0 7.0 0.00 0.00 0.00 89 1024.3
20260507124932 40 342 3.0 7.0 0.00 0.00 0.00 89 1024.2
20260507124432 40 340 2.0 7.0 0.00 0.00 0.00 88 1024.2
20260507123933 39 300 1.0 5.0 0.00 0.00 0.00 89 1024.2
20260507123422 39 316 1.0 5.0 0.00 0.00 0.00 88 1024.1
20260507122922 39 290 1.0 4.0 0.00 0.00 0.00 88 1024.1
20260507122422 39 287 1.0 4.0 0.00 0.00 0.00 88 1023.9
20260507121922 38 281 0.0 4.0 0.00 0.00 0.00 88 1023.9
20260507121423 38 306 0.0 0.0 0.00 0.00 0.00 88 1023.9
20260507120920 38 300 0.0 1.0 0.00 0.00 0.00 88 1023.9
20260507120420 38 302 0.0 3.0 0.00 0.00 0.00 88 1023.8
20260507115917 38 299 0.0 3.0 0.00 0.00 0.00 88 1023.8
20260507115414 38 305 0.0 3.0 0.00 0.00 0.00 88 1023.8
20260507114913 38 304 0.0 2.0 0.00 0.00 0.00 88 1023.8
20260507114400 38 300 1.0 3.0 0.00 0.00 0.00 88 1023.7
20260507113856 38 312 1.0 3.0 0.00 0.00 0.00 87 1023.7
20260507113355 38 317 1.0 3.0 0.00 0.00 0.00 87 1023.7
20260507112852 38 310 1.0 2.0 0.00 0.00 0.00 87 1023.6
20260507112352 38 316 1.0 3.0 0.00 0.00 0.00 87 1023.8
20260507111851 38 301 1.0 3.0 0.00 0.00 0.00 87 1023.8
20260507111340 38 308 1.0 3.0 0.00 0.00 0.00 87 1023.8
20260507110841 38 330 1.0 3.0 0.00 0.00 0.00 87 1023.8
20260507110340 38 330 1.0 4.0 0.00 0.00 0.00 87 1023.8
20260507105841 38 333 2.0 4.0 0.00 0.00 0.00 87 1023.8
20260507105340 38 309 2.0 4.0 0.00 0.00 0.00 86 1023.7
20260507105116 38 326 2.0 4.0 0.00 0.00 0.00 86 1023.7
20260507104841 38 309 2.0 3.0 0.00 0.00 0.00 86 1023.7
20260507103838 39 326 2.0 5.0 0.00 0.00 0.00 85 1023.7
20260507103336 39 333 3.0 6.0 0.00 0.00 0.00 85 1023.7
20260507102836 40 326 1.0 6.0 0.00 0.00 0.00 85 1023.7
20260507102337 40 291 0.0 2.0 0.00 0.00 0.00 86 1023.6
20260507101810 40 311 0.0 1.0 0.00 0.00 0.00 86 1023.5
20260507101312 40 313 0.0 0.0 0.00 0.00 0.00 85 1023.6
20260507101024 40 318 0.0 0.0 0.00 0.00 0.00 85 1023.5
20260507100517 40 318 0.0 0.0 0.00 0.00 0.00 85 1023.5
20260507095735 40 318 0.0 1.0 0.00 0.00 0.00 85 1023.5
20260507095228 40 318 1.0 3.0 0.00 0.00 0.00 85 1023.6
20260507094950 40 323 2.0 4.0 0.00 0.00 0.00 85 1023.6
20260507094201 40 333 2.0 4.0 0.00 0.00 0.00 84 1023.5
20260507093927 40 337 3.0 4.0 0.00 0.00 0.00 84 1023.6
20260507093651 40 335 3.0 4.0 0.00 0.00 0.00 84 1023.7
20260507092648 40 359 3.0 5.0 0.00 0.00 0.00 83 1023.6
20260507092142 40 355 4.0 6.0 0.00 0.00 0.00 83 1023.5
20260507091642 41 352 4.0 6.0 0.00 0.00 0.00 82 1023.6
20260507091139 41 352 4.0 6.0 0.00 0.00 0.00 82 1023.6
20260507090635 41 359 3.0 6.0 0.00 0.00 0.00 81 1023.5
20260507090136 42 344 3.0 5.0 0.00 0.00 0.00 80 1023.4
20260507085634 42 359 2.0 4.0 0.00 0.00 0.00 79 1023.4
20260507085133 42 1 1.0 3.0 0.00 0.00 0.00 79 1023.3
20260507084626 42 11 1.0 3.0 0.00 0.00 0.00 78 1023.3
20260507084124 43 20 1.0 3.0 0.00 0.00 0.00 77 1023.2
20260507083614 43 20 2.0 3.0 0.00 0.00 0.00 77 1023.2
20260507083113 43 22 2.0 4.0 0.00 0.00 0.00 76 1023.0
20260507082614 44 15 2.0 4.0 0.00 0.00 0.00 75 1023.1
20260507082113 44 34 2.0 4.0 0.00 0.00 0.00 75 1022.9
20260507081612 44 63 2.0 4.0 0.00 0.00 0.00 75 1023.0
20260507081342 44 49 2.0 4.0 0.00 0.00 0.00 76 1023.0
20260507080834 44 58 3.0 7.0 0.00 0.00 0.00 75 1023.1
20260507075559 44 84 4.0 8.0 0.00 0.00 0.00 76 1022.9
20260507075054 44 77 6.0 10.0 0.00 0.00 0.00 76 1022.8
20260507074822 44 57 7.0 11.0 0.00 0.00 0.00 77 1022.6
20260507074324 44 67 6.0 11.0 0.00 0.00 0.00 77 1022.9
20260507073549 44 101 5.0 9.0 0.00 0.00 0.00 77 1022.9
20260507073049 44 108 4.0 7.0 0.00 0.00 0.00 78 1023.3
20260507072550 44 29 4.0 7.0 0.00 0.00 0.00 78 1024.2
20260507072047 44 20 5.0 7.0 0.00 0.00 0.00 77 1024.1
20260507071547 44 1 4.0 7.0 0.00 0.00 0.00 77 1024.3
20260507071049 44 359 3.0 6.0 0.00 0.00 0.00 76 1024.2
20260507070544 44 25 2.0 4.0 0.00 0.00 0.00 77 1024.2
20260507070043 44 36 1.0 4.0 0.00 0.00 0.00 77 1024.2
20260507065807 44 22 1.0 4.0 0.00 0.00 0.00 77 1024.4
20260507065036 44 51 2.0 4.0 0.00 0.00 0.00 77 1024.4
20260507064533 44 20 3.0 6.0 0.00 0.00 0.00 76 1024.4
20260507064036 44 2 4.0 7.0 0.00 0.00 0.00 76 1024.2
20260507063533 45 357 4.0 7.0 0.00 0.00 0.00 75 1024.2
20260507063030 45 0 4.0 8.0 0.00 0.00 0.00 75 1024.5
20260507062530 45 19 6.0 9.0 0.00 0.00 0.00 75 1024.5
20260507062030 45 1 6.0 10.0 0.00 0.00 0.00 75 1024.7
20260507061530 45 349 6.0 10.0 0.00 0.00 0.00 75 1024.6
20260507061030 45 17 5.0 8.0 0.00 0.00 0.00 74 1024.5
20260507060529 46 1 5.0 8.0 0.00 0.00 0.00 73 1024.5
20260507060300 45 8 7.0 11.0 0.00 0.00 0.00 73 1024.2
20260507055528 45 8 7.0 11.0 0.00 0.00 0.00 73 1023.9
20260507055025 45 6 8.0 11.0 0.00 0.00 0.00 71 1023.8
20260507054525 46 15 7.0 11.0 0.00 0.00 0.00 70 1023.6
20260507054023 46 16 7.0 11.0 0.00 0.00 0.00 70 1023.3
20260507053521 46 32 7.0 11.0 0.00 0.00 0.00 70 1023.2
20260507053022 46 20 7.0 11.0 0.00 0.00 0.00 70 1023.6
20260507052753 46 11 7.0 12.0 0.00 0.00 0.00 69 1023.6
20260507052021 46 29 9.0 14.0 0.00 0.00 0.00 69 1023.5
20260507051519 46 32 10.0 18.0 0.00 0.00 0.00 69 1023.5
20260507051020 46 28 10.0 18.0 0.00 0.00 0.00 68 1023.5
20260507050517 46 5 10.0 14.0 0.00 0.00 0.00 67 1023.6